GW7129 Weather Reports


Display with metric or nautical units.
time (UTC)temp
F
wind
direction
speed
MPH
gust
MPH
rain 1hr
in
rain 24hr
in
rain mn
in
humidity
%
barometer
mb
20260510173348 81 271 3.0 12.0 0.00 0.00 0.00 31 1013.2
20260510172347 81 290 7.0 12.0 0.00 0.00 0.00 31 1013.5
20260510171243 80 251 2.0 8.0 0.00 0.00 0.00 33 1013.5
20260510170242 80 257 2.0 10.0 0.00 0.00 0.00 33 1013.2
20260510165241 80 283 4.0 10.0 0.00 0.00 0.00 35 1013.5
20260510164209 80 292 5.0 10.0 0.00 0.00 0.00 32 1013.5
20260510163209 80 243 2.0 9.0 0.00 0.00 0.00 35 1013.9
20260510162207 80 272 2.0 9.0 0.00 0.00 0.00 34 1013.9
20260510161206 79 274 3.0 8.0 0.00 0.00 0.00 30 1013.9
20260510160204 80 292 5.0 8.0 0.00 0.00 0.00 35 1013.9
20260510155203 79 288 4.0 8.0 0.00 0.00 0.00 35 1013.9
20260510154132 80 298 4.0 8.0 0.00 0.00 0.00 32 1013.9
20260510153131 79 322 1.0 6.0 0.00 0.00 0.00 44 1013.9
20260510152129 78 224 3.0 8.0 0.00 0.00 0.00 47 1014.2
20260510151127 79 284 3.0 8.0 0.00 0.00 0.00 49 1014.2
20260510150126 77 206 2.0 4.0 0.00 0.00 0.00 48 1014.2
20260510145125 76 238 2.0 4.0 0.00 0.00 0.00 51 1014.2
20260510144124 76 203 2.0 4.0 0.00 0.00 0.00 51 1014.2
20260510143123 75 248 2.0 4.0 0.00 0.00 0.00 52 1031.8
20260510142122 74 200 2.0 4.0 0.00 0.00 0.00 55 1014.2
20260510141019 73 221 1.0 4.0 0.00 0.00 0.00 55 1014.2
20260510140018 72 276 2.0 4.0 0.00 0.00 0.00 56 1014.2
20260510135018 71 250 1.0 4.0 0.00 0.00 0.00 57 1014.2
20260510134017 70 240 1.0 4.0 0.00 0.00 0.00 61 1014.6
20260510133016 68 277 2.0 4.0 0.00 0.00 0.00 67 1014.6
20260510132015 66 287 2.0 4.0 0.00 0.00 0.00 76 1014.2
20260510130943 64 296 1.0 3.0 0.00 0.00 0.00 83 1014.2
20260510125910 63 253 1.0 3.0 0.00 0.00 0.00 86 1014.2
20260510124908 61 266 1.0 3.0 0.00 0.00 0.00 74 1014.2
20260510123908 60 234 0.0 2.0 0.00 0.00 0.00 64 1014.2
20260510122906 59 293 2.0 2.0 0.00 0.00 0.00 63 1014.2
20260510121905 60 248 0.0 0.0 0.00 0.00 0.00 60 1014.2
20260510120903 58 225 0.0 0.0 0.00 0.00 0.00 60 1013.9
20260510115902 57 321 0.0 0.0 0.00 0.00 0.00 61 1013.9
20260510114901 56 221 0.0 0.0 0.00 0.00 0.00 62 1013.5
20260510113901 54 267 0.0 1.0 0.00 0.00 0.00 64 669.2
20260510112827 53 267 0.0 1.0 0.00 0.00 0.00 64 1013.2
20260510111827 52 268 0.0 1.0 0.00 0.00 0.00 64 1012.9
20260510110826 52 267 0.0 1.0 0.00 0.00 0.00 65 1012.9
20260510105825 51 274 0.0 0.0 0.00 0.00 0.00 65 1012.9
20260510104824 50 274 0.0 0.0 0.00 0.00 0.00 66 1012.9
20260510103823 50 274 0.0 1.0 0.00 0.00 0.00 66 1012.5
20260510102822 50 274 1.0 1.0 0.00 0.00 0.00 66 1012.5
20260510101820 50 271 1.0 1.0 0.00 0.00 0.00 66 1012.2
20260510100748 50 271 0.0 1.0 0.00 0.00 0.00 66 1012.2
20260510095747 50 271 0.0 0.0 0.00 0.00 0.00 67 1012.2
20260510094745 50 271 0.0 0.0 0.00 0.00 0.00 67 1012.2
20260510093744 50 271 0.0 0.0 0.00 0.00 0.00 67 1011.9
20260510092743 50 271 0.0 1.0 0.00 0.00 0.00 68 1011.9
20260510091742 51 271 0.0 1.0 0.00 0.00 0.00 66 1012.2
20260510090740 51 271 0.0 0.0 0.00 0.00 0.00 67 1011.9
20260510085738 51 271 0.0 0.0 0.00 0.00 0.00 69 1011.5
20260510084737 51 271 0.0 0.0 0.00 0.00 0.00 68 1011.5
20260510083737 51 271 0.0 0.0 0.00 0.00 0.00 69 1011.5
20260510082633 51 271 0.0 0.0 0.00 0.00 0.00 70 1011.2
20260510081633 52 271 0.0 0.0 0.00 0.00 0.00 69 1011.2
20260510080632 52 271 0.0 1.0 0.00 0.00 0.00 70 1011.2
20260510075630 53 234 1.0 1.0 0.00 0.00 0.00 69 1011.2
20260510074628 53 189 0.0 0.0 0.00 0.00 0.00 70 1011.2
20260510073627 53 189 0.0 0.0 0.00 0.00 0.00 68 1011.2
20260510072625 53 182 0.0 0.0 0.00 0.00 0.00 70 1010.8
20260510071624 53 181 0.0 0.0 0.00 0.00 0.00 73 1010.8
20260510070623 54 267 0.0 0.0 0.00 0.00 0.00 74 1010.5
20260510065622 55 267 0.0 0.0 0.00 0.00 0.00 70 1010.8
20260510064621 55 267 0.0 0.0 0.00 0.00 0.00 72 1010.8
20260510063549 55 267 0.0 0.0 0.00 0.00 0.00 71 1010.8
20260510062549 55 267 0.0 0.0 0.00 0.00 0.00 70 1010.8
20260510061516 55 267 0.0 0.0 0.00 0.00 0.00 71 1011.2
20260510060514 55 267 0.0 0.0 0.00 0.00 0.00 70 1011.2
20260510055512 55 267 0.0 0.0 0.00 0.00 0.00 78 1010.8
20260510054512 56 267 0.0 0.0 0.00 0.00 0.00 78 1011.2
20260510053511 56 267 0.0 1.0 0.00 0.00 0.00 77 863.9
20260510052438 57 267 0.0 1.0 0.00 0.00 0.00 74 863.9
20260510051436 57 267 0.0 1.0 0.00 0.00 0.00 77 863.5
20260510050435 56 217 0.0 0.0 0.00 0.00 0.00 74 863.9
20260510045403 56 217 0.0 0.0 0.00 0.00 0.00 78 863.9
20260510044402 56 217 0.0 0.0 0.00 0.00 0.00 81 1011.2
20260510043330 56 217 0.0 0.0 0.00 0.00 0.00 83 1011.2
20260510042258 57 217 0.0 0.0 0.00 0.00 0.00 81 1011.2
20260510041257 57 217 0.0 0.0 0.00 0.00 0.00 83 1010.8
20260510040225 58 217 0.0 0.0 0.00 0.00 0.00 83 1011.2
20260510035224 58 217 0.0 0.0 0.00 0.00 0.00 84 1011.2
20260510034151 58 217 0.0 0.0 0.00 0.00 0.00 85 1011.2
20260510033150 59 217 0.0 0.0 0.00 0.00 0.00 85 1010.8
20260510032149 59 217 0.0 0.0 0.00 0.00 0.00 84 1010.8
20260510031147 59 217 0.0 0.0 0.00 0.00 0.00 85 1010.8
20260510030146 59 217 0.0 0.0 0.00 0.00 0.00 85 1010.5
20260510025144 59 217 0.0 0.0 0.00 0.00 0.00 85 1010.5
20260510024143 60 217 0.0 0.0 0.00 0.00 0.00 85 1010.8
20260510023142 60 217 0.0 0.0 0.00 0.00 0.00 85 1010.5
20260510022141 61 217 0.0 0.0 0.00 0.00 0.00 85 1010.5
20260510021140 61 217 0.0 0.0 0.00 0.00 0.00 83 1010.5
20260510020140 62 217 0.0 0.0 0.00 0.00 0.00 83 1010.5
20260510015139 63 217 0.0 0.0 0.00 0.00 0.00 83 1010.2
20260510014137 64 217 0.0 1.0 0.00 0.00 0.00 81 1010.2
20260510013105 64 212 0.0 1.0 0.00 0.00 0.00 80 1009.8
20260510012000 64 212 0.0 0.0 0.00 0.00 0.00 79 1009.5
20260510010959 65 212 0.0 0.0 0.00 0.00 0.00 78 1009.1
20260510005958 66 214 0.0 0.0 0.00 0.00 0.00 77 1009.1
20260510004956 66 214 0.0 0.0 0.00 0.00 0.00 76 1008.8
20260510003955 67 214 0.0 0.0 0.00 0.00 0.00 74 1008.5
20260510002954 68 201 0.0 0.0 0.00 0.00 0.00 73 1008.5
20260510001923 69 201 0.0 0.0 0.00 0.00 0.00 71 1008.8
20260510000922 70 200 0.0 0.0 0.00 0.00 0.00 69 1008.5
20260509235921 71 201 0.0 0.0 0.00 0.00 0.00 67 1008.5
20260509234920 72 200 0.0 0.0 0.00 0.00 0.00 65 1008.5
20260509233919 72 200 0.0 2.0 0.00 0.00 0.00 65 1008.5
20260509232919 72 221 0.0 3.0 0.00 0.00 0.00 65 1008.1
20260509231918 73 212 1.0 6.0 0.00 0.00 0.00 63 1008.1
20260509230917 74 208 2.0 6.0 0.00 0.00 0.00 61 1008.1
20260509225916 74 197 1.0 4.0 0.00 0.00 0.00 61 1007.8
20260509224915 73 117 2.0 4.0 0.00 0.00 0.00 64 1007.8
20260509223914 73 174 1.0 4.0 0.00 0.00 0.00 63 1007.8
20260509222913 74 198 1.0 3.0 0.00 0.00 0.00 60 1007.8
20260509221912 74 228 0.0 3.0 0.00 0.00 0.00 59 1007.8
20260509220911 75 234 1.0 5.0 0.00 0.00 0.00 57 1008.1
20260509215910 76 230 3.0 5.0 0.00 0.00 0.00 55 1007.8
20260509214805 77 242 2.0 8.0 0.00 0.00 0.00 55 1007.8
20260509213702 77 208 0.0 8.0 0.00 0.00 0.00 53 1007.8
20260509212701 77 88 3.0 8.0 0.00 0.00 0.00 53 1007.8
20260509211628 77 220 2.0 8.0 0.00 0.00 0.00 54 1007.5
20260509210555 77 263 2.0 10.0 0.00 0.00 0.00 53 1007.5
20260509205522 76 284 4.0 10.0 0.00 0.00 0.00 52 1007.5
20260509204521 76 283 2.0 7.0 0.00 0.00 0.00 50 1007.5
20260509203521 77 268 1.0 8.0 0.00 0.00 0.00 53 1007.5
20260509202520 77 219 2.0 8.0 0.00 0.00 0.00 50 1007.5
20260509201519 77 284 4.0 9.0 0.00 0.00 0.00 50 1007.5
20260509200518 77 278 4.0 9.0 0.00 0.00 0.00 50 1007.5
20260509195516 77 238 3.0 6.0 0.00 0.00 0.00 52 1007.8
20260509194515 76 222 2.0 7.0 0.00 0.00 0.00 53 1007.8
20260509193515 76 208 3.0 7.0 0.00 0.00 0.00 54 1008.1
20260509192442 76 240 4.0 7.0 0.00 0.00 0.00 51 1008.1
20260509191441 75 249 3.0 8.0 0.00 0.00 0.00 53 1008.1
20260509190439 75 205 2.0 11.0 0.00 0.00 0.00 54 1007.8
20260509185407 75 235 2.0 11.0 0.00 0.00 0.00 53 1008.1
20260509184406 74 228 3.0 9.0 0.00 0.00 0.00 52 1008.5
20260509183406 74 314 2.0 12.0 0.00 0.00 0.00 56 1008.5
20260509182405 74 233 4.0 12.0 0.00 0.00 0.00 52 1008.8
20260509181403 74 228 3.0 9.0 0.00 0.00 0.00 55 1008.8
20260509180402 73 232 4.0 9.0 0.00 0.00 0.00 60 1009.1
20260509175401 73 250 3.0 8.0 0.00 0.00 0.00 57 1009.1
20260509174400 72 250 3.0 9.0 0.00 0.00 0.00 62 1009.1